sat.trackr.live / text

‹ back to catalog

STARLINK-34967

NORAD 65177 · 2025-175D

PAYLOAD ACTIVE UNKNOWN

§ Identity

Operator
Country
US
Launch date
2025-08-14
Launch site
AFWTR
Launch vehicle
Mass (kg)
RCS (m²)

Purposes: comms

External: N2YO · Heavens-Above · Gunter

§ Orbital elements

Epoch: 2026-09-20T10:19:02.275680Z

Period
93.91 min
Inclination
97.2867°
Eccentricity
0.0001247
Mean motion
15.33412030 rev/d
Perigee alt
464.8 km
Apogee alt
466.5 km
Semi-major
6,843.8 km
B*
2.6282e-4
RAAN
132.4325°
Arg perigee
83.0146°
Mean anomaly
277.1238°
Rev number
6,212

§ Raw data

STARLINK-349671 65177U 25175D   26263.42988745  .00008410  00000+0  26282-3 0  99972 65177  97.2867 132.4325 0001247  83.0146 277.1238 15.33412030 62126

JSON: /api/v1/satellites/65177 · /tle

For live sub-satellite position, see the globe view (requires WebGL).

§ Visibility from observer

Set your observer location to see the next 7 days of passes ≥ 10°. The values pass through the URL so the page stays shareable.

No JS? Fill the form by hand. The geolocation button needs JavaScript.